EW2270 Weather Reports


time (UTC)temp
F
wind
direction
speed
knots
gust
knots
rain 1hr
in
rain 24hr
in
rain mn
in
humidity
%
barometer
mb
20260508221537 72 253 12.2 21.7 0.00 0.00 0.00 24 1014.9
20260508220034 72 249 13.9 20.0 0.00 0.00 0.00 24 1014.8
20260508214534 73 273 14.8 20.0 0.00 0.00 0.00 24 1014.9
20260508213031 72 262 12.2 18.2 0.00 0.00 0.00 26 1014.9
20260508211534 71 285 13.0 19.1 0.00 0.00 0.00 31 1015.0
20260508210035 71 258 14.8 23.5 0.00 0.00 0.00 30 1015.0
20260508204529 72 285 13.9 23.5 0.00 0.00 0.00 34 1014.7
20260508203028 72 288 15.6 20.9 0.00 0.00 0.00 32 1014.7
20260508201527 74 245 9.6 14.8 0.00 0.00 0.00 28 1014.3
20260508200036 73 290 2.6 7.0 0.00 0.00 0.00 32 1014.2
20260508194522 70 259 2.6 6.1 0.00 0.00 0.00 30 1014.4
20260508193022 70 269 3.5 8.7 0.00 0.00 0.00 33 1014.4
20260508191524 70 214 0.9 7.8 0.00 0.00 0.00 31 1014.6
20260508190021 70 241 2.6 13.0 0.00 0.00 0.00 31 1014.9
20260508184528 69 207 2.6 7.0 0.00 0.00 0.00 38 1015.0
20260508183014 67 265 2.6 7.8 0.00 0.00 0.00 41 1015.2
20260508181525 66 273 2.6 7.8 0.00 0.00 0.00 41 1015.5
20260508180011 65 252 5.2 9.6 0.00 0.00 0.00 40 1015.6
20260508174513 65 313 3.5 7.0 0.00 0.00 0.00 42 1015.6
20260508173008 65 251 2.6 9.6 0.00 0.00 0.00 39 1015.7
20260508171506 65 257 6.1 10.4 0.00 0.00 0.00 39 1015.8
20260508170004 64 245 2.6 6.1 0.00 0.00 0.00 43 1015.7
20260508164501 63 250 2.6 4.3 0.00 0.00 0.00 43 1015.6
20260508163100 62 7 1.7 6.1 0.00 0.00 0.00 41 1015.4
20260508161558 62 307 2.6 5.2 0.00 0.00 0.00 46 1015.3
20260508160057 62 326 1.7 3.5 0.00 0.00 0.00 45 1015.3
20260508154557 63 214 2.6 4.3 0.00 0.00 0.00 39 1015.1
20260508153054 62 257 1.7 3.5 0.00 0.00 0.00 41 1015.1
20260508151600 62 218 3.5 6.1 0.00 0.00 0.00 39 1015.1
20260508150059 59 102 0.9 1.7 0.00 0.00 0.00 52 1015.1
20260508144604 57 206 0.9 1.7 0.00 0.00 0.00 49 1015.1
20260508143045 54 217 0.9 1.7 0.00 0.00 0.00 55 1015.1
20260508141551 53 191 0.0 0.9 0.00 0.00 0.00 53 1015.0
20260508140048 50 191 0.0 3.5 0.00 0.00 0.00 55 1015.1
20260508134544 49 107 0.0 0.0 0.00 0.00 0.00 57 1014.9
20260508133105 47 251 0.0 1.7 0.00 0.00 0.00 56 1014.7
20260508131535 47 191 0.9 4.3 0.00 0.00 0.00 58 1014.5
20260508130037 47 141 3.5 6.1 0.00 0.00 0.00 55 1014.4
20260508124534 53 138 1.7 5.2 0.00 0.00 0.00 43 1014.3
20260508123031 56 139 1.7 10.4 0.00 0.00 0.00 35 1014.3
20260508121535 58 199 5.2 10.4 0.00 0.00 0.00 33 1014.3
20260508120027 56 153 5.2 7.8 0.00 0.00 0.00 33 1014.4
20260508114525 55 158 6.1 9.6 0.00 0.00 0.00 34 1014.3
20260508113024 53 143 5.2 8.7 0.00 0.00 0.00 37 1014.2
20260508111522 52 146 5.2 8.7 0.00 0.00 0.00 40 1014.1
20260508110041 48 153 3.5 7.8 0.00 0.00 0.00 45 1014.0
20260508104517 46 143 2.6 6.1 0.00 0.00 0.00 51 1013.8
20260508103016 44 148 1.7 3.5 0.00 0.00 0.00 55 1013.8
20260508101516 45 110 0.0 0.9 0.00 0.00 0.00 53 1013.9
20260508100017 44 110 2.6 3.5 0.00 0.00 0.00 55 1013.7
20260508094509 45 143 0.0 2.6 0.00 0.00 0.00 50 1013.8
20260508093008 45 148 1.7 3.5 0.00 0.00 0.00 48 1013.7
20260508091504 47 242 2.6 3.5 0.00 0.00 0.00 45 1013.6
20260508090004 51 105 0.9 4.3 0.00 0.00 0.00 36 1013.4
20260508084501 48 115 2.6 3.5 0.00 0.00 0.00 40 1013.5
20260508083057 50 136 1.7 4.3 0.00 0.00 0.00 39 1013.5
20260508081602 51 120 1.7 4.3 0.00 0.00 0.00 34 1013.6
20260508080052 55 179 1.7 7.0 0.00 0.00 0.00 30 1013.7
20260508074550 54 139 2.6 6.1 0.00 0.00 0.00 29 1013.7
20260508073053 53 135 2.6 6.1 0.00 0.00 0.00 35 1013.7
20260508071553 56 144 6.1 8.7 0.00 0.00 0.00 31 1013.6
20260508070040 56 139 6.1 7.8 0.00 0.00 0.00 33 1013.5
20260508064540 56 135 3.5 6.1 0.00 0.00 0.00 34 1013.3
20260508063038 54 160 5.2 6.1 0.00 0.00 0.00 40 1013.3
20260508061539 52 181 1.7 6.1 0.00 0.00 0.00 46 1013.2
20260508060037 53 142 4.3 6.1 0.00 0.00 0.00 46 1013.1
20260508054536 53 134 4.3 7.0 0.00 0.00 0.00 46 1013.0
20260508053058 52 143 4.3 5.2 0.00 0.00 0.00 50 1012.9
20260508051535 54 155 4.3 5.2 0.00 0.00 0.00 47 1012.7
20260508050035 52 219 3.5 6.1 0.00 0.00 0.00 56 1012.6
20260508044534 55 129 5.2 7.0 0.00 0.00 0.00 43 1012.4
20260508043033 56 147 4.3 7.0 0.00 0.00 0.00 44 1012.3
20260508041554 57 133 2.6 7.0 0.00 0.00 0.00 44 1012.3
20260508040037 55 137 3.5 7.0 0.00 0.00 0.00 46 1012.3
20260508034534 55 131 2.6 5.2 0.00 0.00 0.00 51 1012.1
20260508033031 57 139 0.9 5.2 0.00 0.00 0.00 51 1011.9
20260508031535 58 119 0.9 5.2 0.00 0.00 0.00 51 1011.9
20260508030034 62 129 0.9 1.7 0.00 0.00 0.00 44 1011.8
20260508024531 67 139 0.9 1.7 0.00 0.00 0.00 36 1011.7
20260508023030 68 139 0.9 2.6 0.00 0.00 0.00 33 1011.5
20260508021528 70 224 0.9 5.2 0.00 0.00 0.00 27 1011.5
20260508020036 72 242 1.7 4.3 0.00 0.00 0.00 23 1011.4
20260508014525 73 271 1.7 7.8 0.00 0.00 0.00 22 1011.5
20260508013024 74 233 4.3 10.4 0.00 0.00 0.00 20 1011.5
20260508011523 75 246 7.8 10.4 0.00 0.00 0.00 17 1011.6
20260508010022 75 250 9.6 13.9 0.00 0.00 0.00 16 1011.6
20260508004519 74 231 10.4 13.9 0.00 0.00 0.00 16 1011.6
20260508003019 74 243 7.8 15.6 0.00 0.00 0.00 20 1011.7
20260508001517 75 218 5.2 8.7 0.00 0.00 0.00 24 1011.8
20260508000017 75 252 7.8 14.8 0.00 0.00 0.00 21 1011.8
20260507234516 75 285 7.8 13.0 0.00 0.00 0.00 18 1011.8
20260507233028 74 234 4.3 13.0 0.00 0.00 0.00 19 1011.9
20260507231512 75 250 4.3 11.3 0.00 0.00 0.00 22 1012.0
20260507230011 75 214 2.6 11.3 0.00 0.00 0.00 25 1012.2
20260507224509 74 256 3.5 11.3 0.00 0.00 0.00 21 1012.4
20260507223007 74 268 7.8 12.2 0.00 0.00 0.00 22 1012.6